Time,TemperatureF,DewpointF,PressureIn,WindDirection,WindDirectionDegrees,WindSpeedMPH,WindSpeedGustMPH,Humidity,HourlyPrecipIn,Conditions,Clouds,dailyrainin,SoftwareType,DateUTC
2013-04-09 00:02:00,72.0,62.0,29.36,SSE,148,5.0,17.0,72,0.00,,,0.00,,2013-04-09 05:02:00,
2013-04-09 00:12:00,72.0,62.0,29.36,SSE,148,5.0,17.0,72,0.00,,,0.00,,2013-04-09 05:12:00,
2013-04-09 00:22:00,72.0,62.0,29.36,ESE,119,8.0,19.0,72,0.00,,,0.00,,2013-04-09 05:22:00,
2013-04-09 00:32:00,71.0,62.0,29.36,SSE,166,9.0,22.0,74,0.00,,,0.00,,2013-04-09 05:32:00,
2013-04-09 00:42:00,71.0,62.0,29.36,East,88,8.0,16.0,74,0.00,,,0.00,,2013-04-09 05:42:00,
2013-04-09 00:52:00,71.0,62.0,29.36,East,88,8.0,16.0,74,0.00,,,0.00,,2013-04-09 05:52:00,
2013-04-09 01:02:00,71.0,63.0,29.35,SSE,149,10.0,19.0,76,0.00,,,0.00,,2013-04-09 06:02:00,
2013-04-09 01:12:00,71.0,63.0,29.35,ESE,105,10.0,18.0,77,0.00,,,0.00,,2013-04-09 06:12:00,
2013-04-09 01:22:00,71.0,63.0,29.35,ESE,105,10.0,18.0,77,0.00,,,0.00,,2013-04-09 06:22:00,
2013-04-09 01:32:00,71.0,63.0,29.35,SE,133,7.0,19.0,77,0.00,,,0.00,,2013-04-09 06:32:00,
2013-04-09 01:42:00,71.0,63.0,29.35,SE,133,7.0,19.0,77,0.00,,,0.00,,2013-04-09 06:42:00,
2013-04-09 01:52:00,70.0,63.0,29.35,ESE,123,9.0,16.0,78,0.00,,,0.00,,2013-04-09 06:52:00,
2013-04-09 02:02:00,70.0,63.0,29.35,ESE,119,6.0,17.0,79,0.00,,,0.00,,2013-04-09 07:02:00,
2013-04-09 02:13:00,70.0,63.0,29.35,ESE,119,6.0,17.0,79,0.00,,,0.00,,2013-04-09 07:13:00,
2013-04-09 02:22:00,69.0,63.0,29.35,East,98,6.0,14.0,80,0.00,,,0.00,,2013-04-09 07:22:00,
2013-04-09 02:32:00,69.0,63.0,29.34,SSE,165,7.0,13.0,82,0.00,,,0.00,,2013-04-09 07:32:00,
2013-04-09 02:42:00,69.0,63.0,29.34,SSE,165,7.0,13.0,82,0.00,,,0.00,,2013-04-09 07:42:00,
2013-04-09 02:52:00,69.0,64.0,29.34,ESE,121,7.0,19.0,83,0.00,,,0.00,,2013-04-09 07:52:00,
2013-04-09 03:03:00,69.0,64.0,29.34,SSE,154,9.0,20.0,85,0.00,,,0.00,,2013-04-09 08:03:00,
2013-04-09 03:12:00,69.0,64.0,29.34,SSE,154,9.0,20.0,85,0.00,,,0.00,,2013-04-09 08:12:00,
2013-04-09 03:22:00,68.0,64.0,29.33,SE,137,9.0,16.0,86,0.00,,,0.00,,2013-04-09 08:22:00,
2013-04-09 03:32:00,68.0,64.0,29.32,SE,138,8.0,17.0,87,0.00,,,0.00,,2013-04-09 08:32:00,
2013-04-09 03:42:00,68.0,64.0,29.32,SE,138,8.0,17.0,87,0.00,,,0.00,,2013-04-09 08:42:00,
2013-04-09 03:52:00,68.0,64.0,29.32,SSW,192,8.0,15.0,88,0.00,,,0.00,,2013-04-09 08:52:00,
2013-04-09 04:02:00,68.0,64.0,29.32,ESE,105,8.0,19.0,88,0.00,,,0.00,,2013-04-09 09:02:00,
2013-04-09 04:12:00,68.0,64.0,29.32,ESE,105,8.0,19.0,88,0.00,,,0.00,,2013-04-09 09:12:00,
2013-04-09 04:22:00,68.0,64.0,29.31,South,175,11.0,20.0,87,0.00,,,0.00,,2013-04-09 09:22:00,
2013-04-09 04:33:00,67.0,63.0,29.31,SE,139,9.0,17.0,88,0.00,,,0.00,,2013-04-09 09:33:00,
2013-04-09 04:43:00,67.0,63.0,29.31,SE,139,9.0,17.0,88,0.00,,,0.00,,2013-04-09 09:43:00,
2013-04-09 04:52:00,67.0,63.0,29.32,South,175,9.0,18.0,88,0.00,,,0.00,,2013-04-09 09:52:00,
2013-04-09 05:03:00,68.0,64.0,29.31,SE,138,9.0,18.0,87,0.00,,,0.00,,2013-04-09 10:03:00,
2013-04-09 05:13:00,68.0,64.0,29.31,SE,138,9.0,18.0,87,0.00,,,0.00,,2013-04-09 10:13:00,
2013-04-09 05:23:00,68.0,64.0,29.31,SE,130,9.0,22.0,86,0.00,,,0.00,,2013-04-09 10:23:00,
2013-04-09 05:33:00,69.0,64.0,29.32,SE,126,10.0,23.0,85,0.00,,,0.00,,2013-04-09 10:33:00,
2013-04-09 05:42:00,69.0,64.0,29.32,SE,126,10.0,23.0,85,0.00,,,0.00,,2013-04-09 10:42:00,
2013-04-09 05:52:00,69.0,64.0,29.32,ESE,103,10.0,23.0,85,0.00,,,0.00,,2013-04-09 10:52:00,
2013-04-09 06:02:00,69.0,64.0,29.32,East,87,8.0,19.0,85,0.00,,,0.00,,2013-04-09 11:02:00,
2013-04-09 06:12:00,69.0,64.0,29.32,East,87,8.0,19.0,85,0.00,,,0.00,,2013-04-09 11:12:00,
2013-04-09 06:22:00,69.0,64.0,29.32,SSE,165,8.0,21.0,85,0.00,,,0.00,,2013-04-09 11:22:00,
2013-04-09 06:32:00,69.0,64.0,29.32,ESE,122,7.0,17.0,85,0.00,,,0.00,,2013-04-09 11:32:00,
2013-04-09 06:42:00,69.0,64.0,29.32,ESE,122,7.0,17.0,85,0.00,,,0.00,,2013-04-09 11:42:00,
2013-04-09 06:52:00,69.0,64.0,29.33,ESE,115,8.0,19.0,85,0.00,,,0.00,,2013-04-09 11:52:00,
2013-04-09 07:02:00,69.0,65.0,29.34,SSE,161,9.0,18.0,86,0.00,,,0.00,,2013-04-09 12:02:00,
2013-04-09 07:12:00,69.0,65.0,29.34,SSE,161,9.0,18.0,86,0.00,,,0.00,,2013-04-09 12:12:00,
2013-04-09 07:22:00,69.0,65.0,29.33,South,173,8.0,18.0,86,0.00,,,0.00,,2013-04-09 12:22:00,
2013-04-09 07:32:00,68.0,64.0,29.34,South,176,6.0,16.0,87,0.00,,,0.00,,2013-04-09 12:32:00,
2013-04-09 07:42:00,68.0,64.0,29.34,South,176,6.0,16.0,87,0.00,,,0.00,,2013-04-09 12:42:00,
2013-04-09 07:52:00,68.0,64.0,29.34,ESE,121,6.0,17.0,87,0.00,,,0.00,,2013-04-09 12:52:00,
2013-04-09 08:02:00,69.0,65.0,29.34,ESE,117,10.0,15.0,87,0.00,,,0.00,,2013-04-09 13:02:00,
2013-04-09 08:12:00,69.0,65.0,29.34,ESE,117,10.0,15.0,87,0.00,,,0.00,,2013-04-09 13:12:00,
2013-04-09 08:23:00,69.0,65.0,29.35,ESE,120,6.0,14.0,86,0.00,,,0.00,,2013-04-09 13:23:00,
2013-04-09 08:32:00,69.0,64.0,29.34,SSE,167,6.0,14.0,85,0.00,,,0.00,,2013-04-09 13:32:00,
2013-04-09 08:42:00,69.0,64.0,29.34,SSE,167,6.0,14.0,85,0.00,,,0.00,,2013-04-09 13:42:00,
2013-04-09 08:52:00,70.0,65.0,29.34,ESE,108,8.0,19.0,83,0.00,,,0.00,,2013-04-09 13:52:00,
2013-04-09 09:03:00,70.0,64.0,29.33,South,172,6.0,21.0,82,0.00,,,0.00,,2013-04-09 14:03:00,
2013-04-09 09:12:00,70.0,64.0,29.33,South,172,6.0,21.0,82,0.00,,,0.00,,2013-04-09 14:12:00,
2013-04-09 09:22:00,70.0,64.0,29.34,SE,124,11.0,21.0,81,0.00,,,0.00,,2013-04-09 14:22:00,
2013-04-09 09:32:00,71.0,65.0,29.33,SSE,161,13.0,24.0,80,0.00,,,0.00,,2013-04-09 14:32:00,
2013-04-09 09:42:00,71.0,65.0,29.33,SSE,161,13.0,24.0,80,0.00,,,0.00,,2013-04-09 14:42:00,
2013-04-09 09:52:00,71.0,65.0,29.34,SE,134,8.0,22.0,80,0.00,,,0.00,,2013-04-09 14:52:00,
2013-04-09 10:02:00,71.0,64.0,29.34,East,80,12.0,22.0,78,0.00,,,0.00,,2013-04-09 15:02:00,
2013-04-09 10:12:00,71.0,64.0,29.34,East,80,12.0,22.0,78,0.00,,,0.00,,2013-04-09 15:12:00,
2013-04-09 10:22:00,72.0,65.0,29.34,SE,130,12.0,26.0,78,0.00,,,0.00,,2013-04-09 15:22:00,
2013-04-09 10:33:00,73.0,65.0,29.33,SSE,149,11.0,26.0,76,0.00,,,0.00,,2013-04-09 15:33:00,
2013-04-09 10:43:00,73.0,65.0,29.33,SSE,149,11.0,26.0,76,0.00,,,0.00,,2013-04-09 15:43:00,
2013-04-09 10:53:00,73.0,65.0,29.32,ESE,116,10.0,26.0,75,0.00,,,0.00,,2013-04-09 15:53:00,
2013-04-09 11:03:00,73.0,65.0,29.33,SE,130,13.0,28.0,75,0.00,,,0.00,,2013-04-09 16:03:00,
2013-04-09 11:13:00,73.0,65.0,29.33,SE,130,13.0,28.0,75,0.00,,,0.00,,2013-04-09 16:13:00,
2013-04-09 11:23:00,73.0,64.0,29.33,ESE,102,14.0,26.0,74,0.00,,,0.00,,2013-04-09 16:23:00,
2013-04-09 11:33:00,74.0,65.0,29.33,ESE,108,9.0,22.0,73,0.00,,,0.00,,2013-04-09 16:33:00,
2013-04-09 11:42:00,74.0,65.0,29.33,ESE,108,9.0,22.0,73,0.00,,,0.00,,2013-04-09 16:42:00,
2013-04-09 11:53:00,75.0,65.0,29.34,SSE,162,9.0,22.0,71,0.00,,,0.00,,2013-04-09 16:53:00,
2013-04-09 12:02:00,74.0,64.0,29.34,SSE,159,12.0,28.0,72,0.00,,,0.00,,2013-04-09 17:02:00,
2013-04-09 12:13:00,74.0,64.0,29.34,SSE,159,12.0,28.0,72,0.00,,,0.00,,2013-04-09 17:13:00,
2013-04-09 12:23:00,74.0,64.0,29.35,SSE,157,10.0,23.0,72,0.00,,,0.00,,2013-04-09 17:23:00,
2013-04-09 12:32:00,74.0,64.0,29.35,SE,146,14.0,24.0,71,0.00,,,0.00,,2013-04-09 17:32:00,
2013-04-09 12:42:00,74.0,64.0,29.35,SE,146,14.0,24.0,71,0.00,,,0.00,,2013-04-09 17:42:00,
2013-04-09 12:53:00,74.0,65.0,29.35,SE,132,9.0,24.0,73,0.00,,,0.00,,2013-04-09 17:53:00,
2013-04-09 13:02:00,73.0,64.0,29.35,SE,144,6.0,25.0,74,0.00,,,0.00,,2013-04-09 18:02:00,
2013-04-09 13:12:00,73.0,64.0,29.35,SE,144,6.0,25.0,74,0.00,,,0.00,,2013-04-09 18:12:00,
2013-04-09 13:22:00,73.0,65.0,29.35,South,170,4.0,18.0,75,0.00,,,0.00,,2013-04-09 18:22:00,
2013-04-09 13:33:00,74.0,66.0,29.35,SSE,168,6.0,17.0,75,0.00,,,0.00,,2013-04-09 18:33:00,
2013-04-09 13:43:00,74.0,66.0,29.35,SSE,168,6.0,17.0,75,0.00,,,0.00,,2013-04-09 18:43:00,
2013-04-09 13:52:00,75.0,65.0,29.34,South,171,8.0,16.0,72,0.00,,,0.00,,2013-04-09 18:52:00,
2013-04-09 14:02:00,75.0,65.0,29.34,South,171,8.0,16.0,72,0.00,,,0.00,,2013-04-09 19:02:00,
2013-04-09 14:12:00,75.0,65.0,29.34,South,171,8.0,16.0,72,0.00,,,0.00,,2013-04-09 19:12:00,
2013-04-09 14:22:00,75.0,65.0,29.34,South,171,8.0,16.0,72,0.00,,,0.00,,2013-04-09 19:22:00,
2013-04-09 14:32:00,75.0,65.0,29.34,SSE,161,10.0,17.0,71,0.00,,,0.00,,2013-04-09 19:32:00,
2013-04-09 14:42:00,75.0,65.0,29.34,SSE,161,10.0,17.0,71,0.00,,,0.00,,2013-04-09 19:42:00,
2013-04-09 14:52:00,76.0,65.0,29.33,South,183,8.0,19.0,70,0.00,,,0.00,,2013-04-09 19:52:00,
2013-04-09 15:02:00,76.0,66.0,29.33,SSE,153,5.0,15.0,71,0.00,,,0.00,,2013-04-09 20:02:00,
2013-04-09 15:12:00,76.0,66.0,29.33,SSE,153,5.0,15.0,71,0.00,,,0.00,,2013-04-09 20:12:00,
2013-04-09 15:22:00,77.0,66.0,29.32,SE,125,5.0,13.0,69,0.00,,,0.00,,2013-04-09 20:22:00,
2013-04-09 15:33:00,78.0,66.0,29.31,SE,129,10.0,18.0,67,0.00,,,0.00,,2013-04-09 20:33:00,
2013-04-09 15:43:00,78.0,66.0,29.31,SE,129,10.0,18.0,67,0.00,,,0.00,,2013-04-09 20:43:00,
2013-04-09 15:52:00,78.0,66.0,29.30,SSE,163,9.0,24.0,66,0.00,,,0.00,,2013-04-09 20:52:00,
2013-04-09 16:02:00,77.0,66.0,29.31,SE,144,8.0,18.0,68,0.00,,,0.00,,2013-04-09 21:02:00,
2013-04-09 16:13:00,77.0,66.0,29.31,SE,144,8.0,18.0,68,0.00,,,0.00,,2013-04-09 21:13:00,
2013-04-09 16:22:00,77.0,66.0,29.31,SE,144,8.0,18.0,68,0.00,,,0.00,,2013-04-09 21:22:00,
2013-04-09 16:33:00,79.0,66.0,29.30,ESE,115,11.0,21.0,65,0.00,,,0.00,,2013-04-09 21:33:00,
2013-04-09 16:42:00,79.0,66.0,29.30,ESE,115,11.0,21.0,65,0.00,,,0.00,,2013-04-09 21:42:00,
2013-04-09 16:52:00,80.0,67.0,29.30,ESE,113,9.0,24.0,64,0.00,,,0.00,,2013-04-09 21:52:00,
2013-04-09 17:03:00,80.0,67.0,29.30,South,189,8.0,17.0,65,0.00,,,0.00,,2013-04-09 22:03:00,
2013-04-09 17:13:00,80.0,67.0,29.30,South,189,8.0,17.0,65,0.00,,,0.00,,2013-04-09 22:13:00,
2013-04-09 17:23:00,79.0,66.0,29.30,ESE,122,7.0,17.0,65,0.00,,,0.00,,2013-04-09 22:23:00,
2013-04-09 17:33:00,79.0,66.0,29.31,SSE,150,7.0,14.0,65,0.00,,,0.00,,2013-04-09 22:33:00,
2013-04-09 17:42:00,79.0,66.0,29.31,SSE,150,7.0,14.0,65,0.00,,,0.00,,2013-04-09 22:42:00,
2013-04-09 17:53:00,79.0,66.0,29.31,SE,142,6.0,15.0,64,0.00,,,0.00,,2013-04-09 22:53:00,
2013-04-09 18:03:00,80.0,66.0,29.30,SSE,155,7.0,16.0,63,0.00,,,0.00,,2013-04-09 23:03:00,
2013-04-09 18:12:00,80.0,66.0,29.30,SSE,155,7.0,16.0,63,0.00,,,0.00,,2013-04-09 23:12:00,
2013-04-09 18:22:00,81.0,67.0,29.29,SE,134,8.0,16.0,62,0.00,,,0.00,,2013-04-09 23:22:00,
2013-04-09 18:32:00,80.0,66.0,29.29,East,89,8.0,18.0,63,0.00,,,0.00,,2013-04-09 23:32:00,
2013-04-09 18:42:00,80.0,66.0,29.29,East,89,8.0,18.0,63,0.00,,,0.00,,2013-04-09 23:42:00,
2013-04-09 18:52:00,80.0,66.0,29.30,ESE,109,10.0,19.0,63,0.00,,,0.00,,2013-04-09 23:52:00,
2013-04-09 19:03:00,80.0,66.0,29.30,ESE,109,10.0,19.0,63,0.00,,,0.00,,2013-04-10 00:03:00,
2013-04-09 19:12:00,80.0,66.0,29.30,ESE,109,10.0,19.0,63,0.00,,,0.00,,2013-04-10 00:12:00,
2013-04-09 19:23:00,80.0,66.0,29.29,ESE,115,9.0,18.0,63,0.00,,,0.00,,2013-04-10 00:23:00,
2013-04-09 19:32:00,79.0,66.0,29.28,SE,125,7.0,19.0,64,0.00,,,0.00,,2013-04-10 00:32:00,
2013-04-09 19:42:00,79.0,66.0,29.28,SE,125,7.0,19.0,64,0.00,,,0.00,,2013-04-10 00:42:00,
2013-04-09 19:52:00,78.0,65.0,29.28,SE,134,8.0,13.0,65,0.00,,,0.00,,2013-04-10 00:52:00,
2013-04-09 20:02:00,78.0,66.0,29.28,ESE,119,6.0,13.0,66,0.00,,,0.00,,2013-04-10 01:02:00,
2013-04-09 20:12:00,77.0,66.0,29.28,SSE,160,5.0,11.0,68,0.00,,,0.00,,2013-04-10 01:12:00,
2013-04-09 20:23:00,77.0,66.0,29.28,SSE,160,5.0,11.0,68,0.00,,,0.00,,2013-04-10 01:23:00,
2013-04-09 20:32:00,76.0,65.0,29.28,ESE,110,5.0,10.0,69,0.00,,,0.00,,2013-04-10 01:32:00,
2013-04-09 20:42:00,76.0,65.0,29.28,ESE,110,5.0,10.0,69,0.00,,,0.00,,2013-04-10 01:42:00,
2013-04-09 20:52:00,76.0,65.0,29.28,ESE,123,5.0,11.0,69,0.00,,,0.00,,2013-04-10 01:52:00,
2013-04-09 21:02:00,76.0,65.0,29.30,SSE,150,4.0,13.0,69,0.00,,,0.00,,2013-04-10 02:02:00,
2013-04-09 21:12:00,76.0,65.0,29.30,SSE,150,4.0,13.0,69,0.00,,,0.00,,2013-04-10 02:12:00,
2013-04-09 21:22:00,76.0,65.0,29.32,SE,130,2.0,9.0,70,0.00,,,0.00,,2013-04-10 02:22:00,
2013-04-09 21:32:00,76.0,66.0,29.33,ESE,116,1.0,5.0,71,0.00,,,0.00,,2013-04-10 02:32:00,
2013-04-09 21:43:00,76.0,66.0,29.33,ESE,116,1.0,5.0,71,0.00,,,0.00,,2013-04-10 02:43:00,
2013-04-09 21:52:00,76.0,66.0,29.33,ESE,121,4.0,7.0,72,0.00,,,0.00,,2013-04-10 02:52:00,
2013-04-09 22:03:00,76.0,67.0,29.33,East,100,6.0,10.0,73,0.00,,,0.00,,2013-04-10 03:03:00,
2013-04-09 22:12:00,76.0,67.0,29.33,East,100,6.0,10.0,73,0.00,,,0.00,,2013-04-10 03:12:00,
2013-04-09 22:22:00,75.0,67.0,29.35,ESE,109,5.0,9.0,75,0.00,,,0.00,,2013-04-10 03:22:00,
2013-04-09 22:33:00,75.0,67.0,29.35,East,96,6.0,12.0,77,0.00,,,0.00,,2013-04-10 03:33:00,
2013-04-09 22:43:00,75.0,67.0,29.35,East,96,6.0,12.0,77,0.00,,,0.00,,2013-04-10 03:43:00,
2013-04-09 22:52:00,74.0,67.0,29.35,SE,146,6.0,11.0,78,0.00,,,0.00,,2013-04-10 03:52:00,
2013-04-09 23:03:00,74.0,67.0,29.36,SE,135,5.0,13.0,79,0.00,,,0.00,,2013-04-10 04:03:00,
2013-04-09 23:13:00,74.0,67.0,29.36,SE,135,5.0,13.0,79,0.00,,,0.00,,2013-04-10 04:13:00,
2013-04-09 23:23:00,74.0,68.0,29.36,SE,132,7.0,12.0,81,0.00,,,0.00,,2013-04-10 04:23:00,
2013-04-09 23:33:00,73.0,67.0,29.36,East,101,6.0,12.0,82,0.00,,,0.00,,2013-04-10 04:33:00,
2013-04-09 23:42:00,73.0,67.0,29.36,East,101,6.0,12.0,82,0.00,,,0.00,,2013-04-10 04:42:00,
2013-04-09 23:52:00,73.0,67.0,29.36,East,91,5.0,16.0,82,0.00,,,0.00,,2013-04-10 04:52:00,